Location: Friedrichshafen
(47.6598°N, 9.4819°E)
Time: 04:03:36
(UTC+01:00)

ISS - Visible Passes

Search period start: 22 February 2018 00:00
Search period end: 04 March 2018 00:00
Orbit: 403 x 407 km, 51.6° (Epoch: 22 February)

Date Brightness Start Highest point End Pass type
(mag) Time Alt. Az. Time Alt. Az. Time Alt. Az.
26 Feb -1.0 06:24:22 10° S 06:26:40 18° SE 06:28:58 10° E visible
27 Feb -0.6 05:34:03 10° SE 05:34:39 10° SE 05:35:15 10° ESE visible
28 Feb -2.3 06:15:21 10° SSW 06:18:22 35° SE 06:21:23 10° ENE visible
01 Mar -1.6 05:24:06 12° S 05:26:14 21° SE 05:28:48 10° E visible
02 Mar -1.0 04:34:15 13° SE 04:34:15 13° SE 04:35:42 10° ESE visible
02 Mar -3.6 06:06:55 10° SW 06:10:08 68° SSE 06:13:25 10° ENE visible
03 Mar -2.9 05:16:56 32° S 05:17:53 41° SSE 05:21:01 10° ENE visible
